星链-32947 (STARLINK-32947)

导读

STARLINK-32947是美国SpaceX星链互联网星座的一员,于2025年2月27日发射升空,归入低轨卫星星座组网,服务全球高速互联网接入。它延续星链标准设计,延续星座扩容,为偏远地区、海事航空等场景提供卫星互联网服务,支撑美国低轨通信星座布局,提升星座覆盖密度与服务冗余度。

Basic Information
目录编号:
63121
目录名称:
STARLINK-32947
国际标识:
2025-039T
轨道中心:
EARTH
卫星名称:
星链-32947
卫星全名:
星链-32947 (STARLINK-32947)
卫星状态:
在轨 (已飞行554 天)
发射日期:
2025-02-27 UTC
国别 :
美国 (US)
星等 :
--
Orbit Information
数据来源 国际轨道数据
星历时间: 2026-09-03T22:42:39+0800
1天前
查看轨道信息
半长轴: 6861.168km
偏心率: 0.0000731
轨道倾角: 43.003°
近地点辐角 257.131°
升交点赤经 87.462°
平近点角 102.946°
近地点: 482.529km
远地点: 483.533km
周期: 94.266分钟
每日圈数: 15.275861
Detailed Information
固有亮度:
5
最大亮度:
2.5
卫星平台:
Starlink V1.0
覆盖范围:
全球
运营商:
太空探索技术公司
运营商所在国:
美国
制造商(研发单位):
太空探索技术公司
制造商所在国:
美国
使用方式:
暂无
Satellite Introduction
Starlink 计划是 SpaceX 推出的全球卫星互联网项目,通过发射低轨道卫星,为全球尤其是偏远地区提供高速、低延迟的互联网服务。自 2019 年起,Starlink 已部署数千颗卫星,旨在缩小全球数字鸿沟,推动互联网普及。该项目还为军事、航空等行业提供通信支持,带来广泛经济效益。
2D Orbit Map
3D Orbit Map
Orbit Altitude Analysis Chart
Orbit Inclination Analysis Chart
Orbit Comprehensive Analysis Chart
View Comprehensive Chart
Conjunction Data List
Event ID Objects TCA Miss Dist (km) Collision Risk Probability Collision Risk Index (CRI) Action
CDM_260907-044505-868306-312121
2026-09-07T
04:45:04+0000
0.020 km
近距离
1.605524E-3 极高风险 0.99
CDM_260905-222904-691206-312122
KSM1-A (46912)
2026-09-05T
22:29:36+0000
1.612 km
极远距离
3.959059E-6 低风险 0.47
CDM_260905-011406-309506-312121
2026-09-05T
01:14:44+0000
1.910 km
极远距离
2.93298E-6 低风险 0.44
CDM_260906-000304-691206-312122
KSM1-A (46912)
2026-09-06T
00:03:45+0000
2.028 km
极远距离
2.092898E-6 低风险 0.41
CDM_260906-070704-691206-312121
KSM1-A (46912)
2026-09-06T
07:07:27+0000
2.226 km
极远距离
1.691818E-6 低风险 0.4
CDM_260907-031005-868306-312121
2026-09-07T
03:10:54+0000
2.060 km
极远距离
1.555409E-6 低风险 0.39
CDM_260906-165805-868306-312121
2026-09-06T
16:58:54+0000
2.333 km
极远距离
1.197115E-6 低风险 0.37
CDM_260906-084104-691206-312122
KSM1-A (46912)
2026-09-06T
08:41:37+0000
2.709 km
极远距离
1.189017E-6 低风险 0.37
CDM_260905-233806-312106-402421
2026-09-05T
23:38:51+0000
2.742 km
极远距离
9.560187E-7 极低风险 0.35